Regional Weather Roundup
Issued by NWS

Home | Current Version | Previous Version | Graphics & Text | Print | Product List | Glossary On
Versions: 1 2 3 4 5 6 7 8 9 10 11 12 13 14 15 16 17 18 19 20 21 22 23 24 25 26 27 28 29 30 31 32 33 34 35 36 37 38 39 40 41 42 43 44 45 46 47 48 49 50
000
ASUS43 KTOP 200608
RWRKS

WEATHER ROUNDUP FOR KANSAS
NATIONAL WEATHER SERVICE GOODLAND KS
100 AM CDT WED SEP 20 2017

NOTE:  "FAIR" INDICATES FEW OR NO CLOUDS BELOW 12,000 FEET WITH NO
SIGNIFICANT WEATHER AND/OR OBSTRUCTIONS TO VISIBILITY.

KSZ001>006-013>018-027>032-041>047-200700-
NORTHWEST KANSAS

CITY           SKY/WX    TMP DP  RH WIND       PRES   REMARKS
GOODLAND       CLEAR     54  34  46 NW13      29.83R
6HR MIN TEMP:  54; 6HR MAX TEMP:  84;

HAYS           CLOUDY    77  50  38 NW14      29.68R
HILL CITY      CLEAR     64  39  39 NW3       29.72R
6HR MIN TEMP:  64; 6HR MAX TEMP:  93;

RUSSELL        CLOUDY    81  61  50 S25G33    29.59F
6HR MIN TEMP:  81; 6HR MAX TEMP:  94;

$$

KSZ061>065-074>080-084>089-200700-
SOUTHWEST KANSAS

CITY           SKY/WX    TMP DP  RH WIND       PRES   REMARKS
DODGE CITY     CLOUDY    75  59  57 S16G24    29.69R
6HR MIN TEMP:  75; 6HR MAX TEMP:  89;

ELKHART          N/A     67  37  33 SW10        N/A
GARDEN CITY    CLOUDY    65  40  39 N10       29.75R
6HR MIN TEMP:  63; 6HR MAX TEMP:  86;

GREAT BEND     CLOUDY    79  61  53 S20G26    29.65R
LIBERAL        CLOUDY    64  48  56 SW12      29.71R
PRATT          CLOUDY    77  56  48 S21       29.69R
6HR MIN TEMP:  77; 6HR MAX TEMP:  90;

$$

KSZ066>073-081>083-090>101-200700-
SOUTHEAST KANSAS

CITY           SKY/WX    TMP DP  RH WIND       PRES   REMARKS
CHANUTE        CLEAR     78  69  73 S15       29.77S
6HR MIN TEMP:  78; 6HR MAX TEMP:  84;

COFFEYVILLE    CLEAR     78  70  76 S10G21    29.77R
6HR MIN TEMP:  78; 6HR MAX TEMP:  85;

HUTCHINSON     CLOUDY    80  69  69 S21G29    29.67S
6HR MIN TEMP:  80; 6HR MAX TEMP:  92;

MEDICINE LODGE   N/A     78  58  49 S17G28    29.68S
NEWTON         PTCLDY    79  69  71 S23G30    29.70S
WICHITA INTL   PTCLDY    79  71  76 S17       29.70R
6HR MIN TEMP:  79; 6HR MAX TEMP:  92;

WICHITA JABRA  CLEAR     79  71  76 S21G30    29.71R
6HR MIN TEMP:  79; 6HR MAX TEMP:  90;

WICHITA MCCONL CLEAR     79  69  70 S20G29    29.71R
WINFIELD       CLEAR     79  71  76 S18G25    29.74R
6HR MIN TEMP:  79; 6HR MAX TEMP:  90;

$$

KSZ007>012-019>026-033>040-048>060-102>105-200700-
NORTHEAST KANSAS

CITY           SKY/WX    TMP DP  RH WIND       PRES   REMARKS
CONCORDIA      CLOUDY    80  68  66 S22G33    29.59S
6HR MIN TEMP:  80; 6HR MAX TEMP:  89;

EMPORIA        CLEAR     77  69  76 S17       29.72S
6HR MIN TEMP:  76; 6HR MAX TEMP:  84;

LAWRENCE       CLEAR     78  70  76 SE13      29.73S
6HR MIN TEMP:  78; 6HR MAX TEMP:  83;

MANHATTAN      PTCLDY    81  71  71 S15G30    29.64S
6HR MIN TEMP:  81; 6HR MAX TEMP:  89;

MARYSVILLE     CLOUDY    79  72  78 S16G28    29.62F
OLATHE IND     CLEAR     76  68  76 S15G22    29.76S
6HR MIN TEMP:  76; 6HR MAX TEMP:  82;

OLATHE EXE     CLEAR     76  69  79 S12       29.76S
6HR MIN TEMP:  75; 6HR MAX TEMP:  81;

SALINA         CLOUDY    83  67  58 S17G33    29.63S
6HR MIN TEMP:  83; 6HR MAX TEMP:  96;

TOPEKA BILLARD CLEAR     79  71  76 S15       29.70S
6HR MIN TEMP:  79; 6HR MAX TEMP:  85;

TOPEKA FORBES  CLEAR     79  71  76 S15G23    29.72S
6HR MIN TEMP:  78; 6HR MAX TEMP:  85;

$$




USA.gov is the U.S. government's official web portal to all federal, state and local government web resources and services.